Weather History for Jackson, MI

Change the Weather History Date:

Tuesday, July 23, 2013

  Actual Average Record
Temperature  
Mean Temperature 70 °F 71 °F  
Max Temperature 84 °F 82 °F 96 °F (1984)
Min Temperature 56 °F 60 °F 45 °F (1985)
Degree Days  
Heating Degree Days 0 0  
Month to date heating degree days 1 1  
Since 1 June heating degree days 58 56  
Since 1 July heating degree days 1 1  
Cooling Degree Days 5 6  
Month to date cooling degree days 208 156  
Year to date cooling degree days 392 319  
Since 1 June cooling degree days 325 282  
Growing Degree Days 20 (Base 50)    
Moisture  
Dew Point 63 °F    
Average Humidity 74    
Maximum Humidity 90    
Minimum Humidity 58    
Precipitation  
Precipitation 0.01 in 0.12 in 1.65 in (2010)
Month to date precipitation 1.45 2.59  
Year to date precipitation 18.69 16.46  
Sea Level Pressure  
Sea Level Pressure 29.76 in    
Wind  
Wind Speed 8 mph (West)    
Max Wind Speed 18 mph    
Max Gust Speed 26 mph    
Visibility 10 miles    
Events Rain    
T = Trace of Precipitation, MM = Missing Value Source: NWS Daily Summary

Daily Weather History Graph

Daily Weather History Graph

Search for Another Location

Airport:

Trip Planner

Search our weather history database for the weather conditions in past years. The results will help you decide how hot, cold, wet, or windy it might be!

Date:

Astronomy

Jul. 23, 2013 Rise Set
Actual Time 6:22 AM EDT 9:06 PM EDT
Civil Twilight 5:49 AM EDT 9:38 PM EDT
Nautical Twilight 5:08 AM EDT 10:19 PM EDT
Astronomical Twilight 4:21 AM EDT 11:06 PM EDT
Moon 9:30 PM EDT (7/23) 7:31 AM EDT (7/23)
Length of Visible Light 15h 49m
Length of Day
14h 44m
Full, 99% of the Moon is Illuminated
Jul 23
Full
Jul 29
Last Quarter
Aug 6
New
Aug 14
First Quarter
Aug 20
Full

Hourly Weather History & Observations

Time (EDT) Temp. Heat Index Dew Point Humidity Pressure Visibility Wind Dir Wind Speed Gust Speed Precip Events Conditions
12:56 AM 68.0 °F - 64.0 °F 87% 29.80 in 10.0 mi Calm Calm - N/A   Clear
1:56 AM 68.0 °F - 64.0 °F 87% 29.79 in 10.0 mi SW 3.5 mph - N/A   Partly Cloudy
2:56 AM 68.0 °F - 64.0 °F 87% 29.76 in 10.0 mi SSW 4.6 mph - N/A   Partly Cloudy
3:56 AM 68.0 °F - 64.0 °F 87% 29.72 in 10.0 mi South 8.1 mph - N/A   Clear
4:56 AM 68.0 °F - 64.0 °F 87% 29.72 in 10.0 mi SSW 4.6 mph - N/A   Clear
5:56 AM 68.0 °F - 64.9 °F 90% 29.71 in 10.0 mi South 5.8 mph - N/A   Clear
6:56 AM 69.1 °F - 66.0 °F 90% 29.74 in 10.0 mi WSW 3.5 mph - N/A   Mostly Cloudy
7:56 AM 69.1 °F - 66.9 °F 93% 29.74 in 10.0 mi SW 8.1 mph - 0.01 in Rain Light Rain
8:56 AM 70.0 °F - 68.0 °F 93% 29.73 in 10.0 mi West 5.8 mph - 0.00 in   Partly Cloudy
9:56 AM 73.0 °F - 69.1 °F 87% 29.71 in 10.0 mi SW 9.2 mph - N/A   Clear
10:56 AM 78.1 °F - 69.1 °F 74% 29.72 in 10.0 mi WSW 9.2 mph - N/A   Clear
11:56 AM 81.0 °F 83.8 °F 68.0 °F 65% 29.72 in 10.0 mi WSW 12.7 mph 18.4 mph N/A   Clear
12:37 PM 80.6 °F 83.2 °F 68.0 °F 65% 29.74 in 10.0 mi West 10.4 mph 23.0 mph N/A   Mostly Cloudy
12:47 PM 80.6 °F 83.2 °F 68.0 °F 65% 29.74 in 10.0 mi West 8.1 mph - N/A   Scattered Clouds
12:56 PM 82.0 °F 84.9 °F 68.0 °F 62% 29.72 in 10.0 mi West 8.1 mph - N/A   Scattered Clouds
1:56 PM 82.0 °F 84.5 °F 66.9 °F 60% 29.71 in 10.0 mi West 11.5 mph - N/A   Partly Cloudy
2:56 PM 77.0 °F - 68.0 °F 74% 29.71 in 10.0 mi Variable 6.9 mph - N/A   Mostly Cloudy
3:56 PM 80.1 °F 82.3 °F 66.9 °F 64% 29.72 in 10.0 mi NNW 9.2 mph 19.6 mph N/A   Mostly Cloudy
4:56 PM 75.0 °F - 63.0 °F 66% 29.73 in 10.0 mi NNW 10.4 mph 25.3 mph N/A   Mostly Cloudy
5:56 PM 75.0 °F - 61.0 °F 62% 29.75 in 10.0 mi NW 11.5 mph 20.7 mph N/A   Scattered Clouds
6:56 PM 75.9 °F - 60.1 °F 58% 29.76 in 10.0 mi NW 6.9 mph - N/A   Mostly Cloudy
7:56 PM 72.0 °F - 57.0 °F 59% 29.77 in 10.0 mi NNW 10.4 mph 16.1 mph N/A   Partly Cloudy
8:56 PM 66.9 °F - 53.1 °F 61% 29.80 in 10.0 mi North 8.1 mph 18.4 mph N/A   Clear
9:56 PM 62.1 °F - 52.0 °F 70% 29.83 in 10.0 mi North 9.2 mph 18.4 mph N/A   Clear
10:56 PM 57.9 °F - 48.9 °F 72% 29.89 in 10.0 mi North 5.8 mph - N/A   Clear
11:56 PM 57.9 °F - 48.0 °F 70% 29.91 in 10.0 mi North 5.8 mph - N/A   Overcast